Terug naar catalogus

STARLINK-5771

ActiefCommunicatieVLEO
NORAD 56023·PAYLOAD·🇺🇸 United States

Gelanceerd Mar 24, 2023 vanaf Cape Canaveral Space Force Station

Loading…

Volgende Passages (komende 24 uur)

TLE

VersSource: CelesTrak SupGP

Epoch: Sep 15, 2026, 01:27 UTC

1 56023C 23042AP  26258.06090278 -.00021813  00000+0 -78994-3 0  2586
2 56023  43.0011  56.1529 0002440 261.8553  64.6717 15.27592441    17

Volg STARLINK-5771 in realtime met AllMySat

Download on the App Store